PWSweather.com
Personal Weather Stations
Station Observations
KTXROUND14
Stone Oak Hoa, Round Rock, TX 78681

Stone Oak HoaRound Rock, TX 78681

Lat: 30.553161, Lon: -97.735115

Elevation: 875

Station Type: Acurite 5-in-1

http://www.kishk.org/weather

Latest ConditionsUpdated 3:52:02 AM CDT Wednesday, Jul 18, 2018
Currently Today's Max Today's Min Today's Average
Temperature 76.0°F24.4°C 84.0°F28.9°C 76.0°F24.4°C 79.3°F26.3°C
Dew Point 73.0°F22.8°C 73.0°F22.8°C 70.0°F21.1°C 71.9°F22.2°C
Winds 2.0 mph ESE3.2 kmh ESE 4.0 mph -6.4 kmh - - 2.5 mph 4.0 kmh
Wind Gusts 8.0 mph12.9 kmh 9.0 mph14.5 kmh - -
Humidity 89% 89% 65% 78%
Pressure 30.00 in1015.9 mb 30.01 in1016.3 mb 30.00 in1015.9 mb -
Hour Temp Dew Point Humidity Winds Wind Gusts Pressure Precip Precip Rate Daily Precip Total
03:52 AM 76.0°F24.4°C 73.0°F22.8°C 89% 2.0 mph ESE3.2 kmh ESE 8.0 mph12.9 kmh 30.00 in1015.9 mb 0.00 in0.0 mm 0.00 in0.0 mm 0.00 in0.0 mm
03:47 AM 76.0°F24.4°C 73.0°F22.8°C 89% 2.0 mph NNW3.2 kmh NNW 8.0 mph12.9 kmh 30.00 in1015.9 mb 0.00 in0.0 mm 0.00 in0.0 mm 0.00 in0.0 mm
03:42 AM 76.0°F24.4°C 73.0°F22.8°C 89% 2.0 mph NNW3.2 kmh NNW 8.0 mph12.9 kmh 30.00 in1015.9 mb 0.00 in0.0 mm 0.00 in0.0 mm 0.00 in0.0 mm
03:37 AM 76.0°F24.4°C 73.0°F22.8°C 88% 3.0 mph 4.8 kmh 8.0 mph12.9 kmh 30.00 in1015.9 mb 0.00 in0.0 mm 0.00 in0.0 mm 0.00 in0.0 mm
03:32 AM 77.0°F25.0°C 73.0°F22.8°C 88% 2.0 mph NNW3.2 kmh NNW 8.0 mph12.9 kmh 30.00 in1015.9 mb 0.00 in0.0 mm 0.00 in0.0 mm 0.00 in0.0 mm
03:27 AM 77.0°F25.0°C 72.0°F22.2°C 87% 2.0 mph ESE3.2 kmh ESE 8.0 mph12.9 kmh 30.00 in1015.9 mb 0.00 in0.0 mm 0.00 in0.0 mm 0.00 in0.0 mm
03:22 AM 77.0°F25.0°C 72.0°F22.2°C 87% 2.0 mph E3.2 kmh E 8.0 mph12.9 kmh 30.00 in1015.9 mb 0.00 in0.0 mm 0.00 in0.0 mm 0.00 in0.0 mm
03:17 AM 77.0°F25.0°C 72.0°F22.2°C 86% 2.0 mph E3.2 kmh E 8.0 mph12.9 kmh 30.00 in1015.9 mb 0.00 in0.0 mm 0.00 in0.0 mm 0.00 in0.0 mm
03:12 AM 77.0°F25.0°C 72.0°F22.2°C 86% 2.0 mph E3.2 kmh E 8.0 mph12.9 kmh 30.00 in1015.9 mb 0.00 in0.0 mm 0.00 in0.0 mm 0.00 in0.0 mm
03:07 AM 77.0°F25.0°C 72.0°F22.2°C 86% 2.0 mph NNW3.2 kmh NNW 8.0 mph12.9 kmh 30.00 in1015.9 mb 0.00 in0.0 mm 0.00 in0.0 mm 0.00 in0.0 mm
03:02 AM 77.0°F25.0°C 72.0°F22.2°C 85% 2.0 mph NNW3.2 kmh NNW 8.0 mph12.9 kmh 30.00 in1015.9 mb 0.00 in0.0 mm 0.00 in0.0 mm 0.00 in0.0 mm
02:52 AM 77.0°F25.0°C 73.0°F22.8°C 84% 2.0 mph W3.2 kmh W 8.0 mph12.9 kmh 30.01 in1016.3 mb 0.00 in0.0 mm 0.00 in0.0 mm 0.00 in0.0 mm
02:47 AM 78.0°F25.6°C 73.0°F22.8°C 83% 3.0 mph NE4.8 kmh NE 6.0 mph9.7 kmh 30.01 in1016.3 mb 0.00 in0.0 mm 0.00 in0.0 mm 0.00 in0.0 mm
02:42 AM 78.0°F25.6°C 73.0°F22.8°C 83% 3.0 mph NE4.8 kmh NE 6.0 mph9.7 kmh 30.01 in1016.3 mb 0.00 in0.0 mm 0.00 in0.0 mm 0.00 in0.0 mm
02:37 AM 78.0°F25.6°C 73.0°F22.8°C 83% 2.0 mph NNE3.2 kmh NNE 6.0 mph9.7 kmh 30.01 in1016.3 mb 0.00 in0.0 mm 0.00 in0.0 mm 0.00 in0.0 mm
02:32 AM 78.0°F25.6°C 72.0°F22.2°C 82% 4.0 mph NNE6.4 kmh NNE 6.0 mph9.7 kmh 30.01 in1016.3 mb 0.00 in0.0 mm 0.00 in0.0 mm 0.00 in0.0 mm
02:27 AM 78.0°F25.6°C 72.0°F22.2°C 81% 4.0 mph ESE6.4 kmh ESE 6.0 mph9.7 kmh 30.01 in1016.3 mb 0.00 in0.0 mm 0.00 in0.0 mm 0.00 in0.0 mm
02:22 AM 78.0°F25.6°C 72.0°F22.2°C 81% 2.0 mph SE3.2 kmh SE 6.0 mph9.7 kmh 30.01 in1016.3 mb 0.00 in0.0 mm 0.00 in0.0 mm 0.00 in0.0 mm
02:17 AM 79.0°F26.1°C 72.0°F22.2°C 81% 3.0 mph 4.8 kmh 6.0 mph9.7 kmh 30.01 in1016.3 mb 0.00 in0.0 mm 0.00 in0.0 mm 0.00 in0.0 mm
02:12 AM 79.0°F26.1°C 72.0°F22.2°C 81% 3.0 mph 4.8 kmh 6.0 mph9.7 kmh 30.01 in1016.3 mb 0.00 in0.0 mm 0.00 in0.0 mm 0.00 in0.0 mm
02:07 AM 79.0°F26.1°C 72.0°F22.2°C 80% 2.0 mph WNW3.2 kmh WNW 6.0 mph9.7 kmh 30.01 in1016.3 mb 0.00 in0.0 mm 0.00 in0.0 mm 0.00 in0.0 mm
01:57 AM 79.0°F26.1°C 71.0°F21.7°C 78% 3.0 mph NNE4.8 kmh NNE 6.0 mph9.7 kmh 30.00 in1015.9 mb 0.00 in0.0 mm 0.00 in0.0 mm 0.00 in0.0 mm
01:52 AM 79.0°F26.1°C 73.0°F22.8°C 78% 2.0 mph WNW3.2 kmh WNW 7.0 mph11.3 kmh 30.00 in1015.9 mb 0.00 in0.0 mm 0.00 in0.0 mm 0.00 in0.0 mm
01:47 AM 79.0°F26.1°C 72.0°F22.2°C 77% 2.0 mph E3.2 kmh E 7.0 mph11.3 kmh 30.00 in1015.9 mb 0.00 in0.0 mm 0.00 in0.0 mm 0.00 in0.0 mm
01:42 AM 79.0°F26.1°C 72.0°F22.2°C 77% 2.0 mph E3.2 kmh E 7.0 mph11.3 kmh 30.00 in1015.9 mb 0.00 in0.0 mm 0.00 in0.0 mm 0.00 in0.0 mm
01:37 AM 80.0°F26.7°C 72.0°F22.2°C 76% 2.0 mph E3.2 kmh E 7.0 mph11.3 kmh 30.00 in1015.9 mb 0.00 in0.0 mm 0.00 in0.0 mm 0.00 in0.0 mm
01:32 AM 80.0°F26.7°C 72.0°F22.2°C 76% 2.0 mph NNW3.2 kmh NNW 7.0 mph11.3 kmh 30.00 in1015.9 mb 0.00 in0.0 mm 0.00 in0.0 mm 0.00 in0.0 mm
01:27 AM 80.0°F26.7°C 72.0°F22.2°C 76% 4.0 mph 6.4 kmh 7.0 mph11.3 kmh 30.00 in1015.9 mb 0.00 in0.0 mm 0.00 in0.0 mm 0.00 in0.0 mm
01:22 AM 80.0°F26.7°C 71.0°F21.7°C 75% 2.0 mph 3.2 kmh 7.0 mph11.3 kmh 30.00 in1015.9 mb 0.00 in0.0 mm 0.00 in0.0 mm 0.00 in0.0 mm
01:17 AM 81.0°F27.2°C 71.0°F21.7°C 74% 2.0 mph NW3.2 kmh NW 7.0 mph11.3 kmh 30.00 in1015.9 mb 0.00 in0.0 mm 0.00 in0.0 mm 0.00 in0.0 mm
01:12 AM 81.0°F27.2°C 71.0°F21.7°C 74% 2.0 mph NW3.2 kmh NW 7.0 mph11.3 kmh 30.00 in1015.9 mb 0.00 in0.0 mm 0.00 in0.0 mm 0.00 in0.0 mm
01:07 AM 81.0°F27.2°C 71.0°F21.7°C 73% 1.0 mph WNW1.6 kmh WNW 8.0 mph12.9 kmh 30.00 in1015.9 mb 0.00 in0.0 mm 0.00 in0.0 mm 0.00 in0.0 mm
01:02 AM 81.0°F27.2°C 72.0°F22.2°C 73% 3.0 mph NNE4.8 kmh NNE 9.0 mph14.5 kmh 30.00 in1015.9 mb 0.00 in0.0 mm 0.00 in0.0 mm 0.00 in0.0 mm
12:47 AM 82.0°F27.8°C 71.0°F21.7°C 70% 4.0 mph W6.4 kmh W 9.0 mph14.5 kmh 30.00 in1015.9 mb 0.00 in0.0 mm 0.00 in0.0 mm 0.00 in0.0 mm
12:42 AM 82.0°F27.8°C 71.0°F21.7°C 69% 4.0 mph 6.4 kmh 9.0 mph14.5 kmh 30.00 in1015.9 mb 0.00 in0.0 mm 0.00 in0.0 mm 0.00 in0.0 mm
12:37 AM 82.0°F27.8°C 71.0°F21.7°C 69% 4.0 mph 6.4 kmh 9.0 mph14.5 kmh 30.00 in1015.9 mb 0.00 in0.0 mm 0.00 in0.0 mm 0.00 in0.0 mm
12:32 AM 82.0°F27.8°C 71.0°F21.7°C 69% 2.0 mph NE3.2 kmh NE 9.0 mph14.5 kmh 30.00 in1015.9 mb 0.00 in0.0 mm 0.00 in0.0 mm 0.00 in0.0 mm
12:27 AM 82.0°F27.8°C 70.0°F21.1°C 68% 2.0 mph NNW3.2 kmh NNW 9.0 mph14.5 kmh 30.00 in1015.9 mb 0.00 in0.0 mm 0.00 in0.0 mm 0.00 in0.0 mm
12:22 AM 83.0°F28.3°C 72.0°F22.2°C 67% 2.0 mph NW3.2 kmh NW 9.0 mph14.5 kmh 30.00 in1015.9 mb 0.00 in0.0 mm 0.00 in0.0 mm 0.00 in0.0 mm
12:17 AM 83.0°F28.3°C 71.0°F21.7°C 66% 2.0 mph WNW3.2 kmh WNW 9.0 mph14.5 kmh 30.00 in1015.9 mb 0.00 in0.0 mm 0.00 in0.0 mm 0.00 in0.0 mm
12:12 AM 83.0°F28.3°C 71.0°F21.7°C 65% 4.0 mph NNE6.4 kmh NNE 9.0 mph14.5 kmh 30.00 in1015.9 mb 0.00 in0.0 mm 0.00 in0.0 mm 0.00 in0.0 mm
12:07 AM 83.0°F28.3°C 71.0°F21.7°C 65% 4.0 mph NNE6.4 kmh NNE 9.0 mph14.5 kmh 30.00 in1015.9 mb 0.00 in0.0 mm 0.00 in0.0 mm 0.00 in0.0 mm
12:02 AM 84.0°F28.9°C 71.0°F21.7°C 65% 3.0 mph W4.8 kmh W 9.0 mph14.5 kmh 30.00 in1015.9 mb 0.00 in0.0 mm 0.00 in0.0 mm 0.00 in0.0 mm